This demonstration page uses our WeatherBlox Daily Observations layout. Learn more.

Left ArrowRight Arrow

38.20091, -84.87328

Hourly Observations for July 19, 2020

Temp ( °F °C ) Dew Point ( °F °C ) Humidity (%) Winds ( mph kmh ) Pressure ( in mb ) Visibility ( mi km ) Precip ( " mm )
12:53 am 00:53 Clear 78 25.6 72 22.2 82 82 Calm 30.01 1016 10 16 0.00 0.00
1:53 am 01:53 Clear 76 24.4 72 22.2 88 88 SW 3 6 30.01 1016 10 16 0.00 0.00
2:53 am 02:53 Clear 76 24.4 71 21.7 85 85 SSW 3 6 29.98 1015 10 16 0.00 0.00
3:53 am 03:53 Clear 74 23.3 71 21.7 91 91 SSW 5 7 29.98 1015 10 16 0.00 0.00
4:53 am 04:53 Clear 74 23.3 71 21.7 91 91 SW 3 6 29.99 1016 10 16 0.00 0.00
5:53 am 05:53 Clear 74 23.3 70 21.1 88 88 SW 3 6 30.00 1016 10 16 0.00 0.00
6:53 am 06:53 Sunny 74 23.3 70 21.1 88 88 SSW 6 9 30.01 1016 10 16 0.00 0.00
7:53 am 07:53 Sunny 77 25 72 22.2 85 85 SW 7 11 30.02 1017 10 16 0.00 0.00
8:53 am 08:53 Sunny 83 28.3 74 23.3 74 74 WSW 8 13 30.02 1017 10 16 0.00 0.00
9:53 am 09:53 Sunny 86 30 73 22.8 65 65 WSW 12 19 30.01 1016 10 16 0.00 0.00
10:53 am 10:53 Sunny 88 31.1 73 22.8 61 61 SW 16 26 30.01 1016 10 16 0.00 0.00
11:53 am 11:53 Sunny 89 31.7 72 22.2 57 57 WSW 15 24 29.99 1016 10 16 0.00 0.00
12:53 pm 12:53 Partly Cloudy 91 32.8 73 22.8 56 56 SW 14 22 30.01 1016 10 16 0.00 0.00
1:53 pm 13:53 Sunny 92 33.3 72 22.2 52 52 WSW 13 20 30.00 1016 10 16 0.00 0.00
2:53 pm 14:53 Mostly Sunny 93 33.9 72 22.2 50 50 WSW 10 17 29.99 1016 10 16 0.00 0.00
3:53 pm 15:53 Partly Cloudy 93 33.9 72 22.2 50 50 WSW 14 22 29.97 1015 10 16 0.00 0.00
4:53 pm 16:53 Mostly Sunny 93 33.9 73 22.8 52 52 WSW 8 13 29.96 1014 10 16 0.00 0.00
5:53 pm 17:53 Mostly Sunny 92 33.3 71 21.7 51 51 WSW 9 15 29.95 1014 10 16 0.00 0.00
6:53 pm 18:53 Mostly Sunny 91 32.8 71 21.7 52 52 W 5 7 29.95 1014 10 16 0.00 0.00
7:53 pm 19:53 Sunny 88 31.1 72 22.2 59 59 SW 6 9 29.95 1014 10 16 0.00 0.00
8:53 pm 20:53 Sunny 85 29.4 72 22.2 65 65 SSW 7 11 29.95 1014 10 16 0.00 0.00
9:53 pm 21:53 Clear 83 28.3 72 22.2 70 70 W 3 6 29.97 1015 10 16 0.00 0.00
10:53 pm 22:53 Clear 81 27.2 72 22.2 74 74 W 3 6 29.96 1015 10 16 0.00 0.00
11:53 pm 23:53 Clear 79 26.1 72 22.2 79 79 SSW 7 11 29.94 1014 10 16 0.00 0.00

Powered by AerisWeather